FW7611 Weather Reports


Display with metric or nautical units.
time (UTC)temp
F
wind
direction
speed
MPH
gust
MPH
rain 1hr
in
rain 24hr
in
rain mn
in
humidity
%
barometer
mb
20260509183037 70 235 2.0 9.0 0.00 0.00 0.00 63 1011.7
20260509181537 70 263 1.0 4.0 0.00 0.00 0.00 63 1011.9
20260509180037 71 300 1.0 4.0 0.00 0.00 0.00 63 1012.2
20260509174536 74 252 1.0 7.0 0.00 0.00 0.00 55 1012.1
20260509173041 70 274 1.0 5.0 0.00 0.00 0.00 60 1012.2
20260509171541 71 259 2.0 9.0 0.00 0.00 0.00 61 1012.3
20260509170040 70 220 2.0 8.0 0.00 0.00 0.00 62 1012.5
20260509164536 70 227 1.0 10.0 0.00 0.00 0.00 65 1012.7
20260509163054 69 261 1.0 8.0 0.00 0.00 0.00 67 1013.2
20260509161542 68 297 1.0 5.0 0.00 0.00 0.00 68 1013.3
20260509160042 67 221 1.0 2.0 0.00 0.00 0.00 70 1013.6
20260509154539 66 213 2.0 6.0 0.00 0.00 0.00 72 1013.5
20260509153036 67 198 1.0 3.0 0.00 0.00 0.00 71 1013.5
20260509151536 66 229 1.0 7.0 0.00 0.00 0.00 72 1013.6
20260509150042 66 175 3.0 6.0 0.00 0.00 0.00 72 1013.6
20260509144540 64 243 1.0 5.0 0.00 0.00 0.00 76 1013.8
20260509143040 64 161 3.0 7.0 0.00 0.00 0.00 75 1013.8
20260509141537 63 0 0.0 5.0 0.00 0.00 0.00 77 1013.8
20260509140045 63 0 1.0 6.0 0.00 0.00 0.00 78 1013.8
20260509134548 61 188 1.0 3.0 0.00 0.00 0.00 80 1013.9
20260509133035 60 185 2.0 6.0 0.00 0.00 0.00 82 1014.1
20260509131542 58 171 2.0 6.0 0.00 0.00 0.00 82 1014.7
20260509130034 57 199 0.0 4.0 0.00 0.00 0.00 83 1015.1
20260509124540 55 159 0.0 3.0 0.00 0.00 0.00 84 1015.0
20260509123037 54 212 0.0 3.0 0.00 0.00 0.00 84 1015.2
20260509121539 53 0 0.0 2.0 0.00 0.00 0.00 86 1014.8
20260509120036 52 0 0.0 0.0 0.00 0.00 0.00 88 1014.4
20260509114535 51 0 0.0 0.0 0.00 0.00 0.00 89 1014.6
20260509113044 50 0 0.0 0.0 0.00 0.00 0.00 91 1014.5
20260509111536 49 0 0.0 0.0 0.00 0.00 0.00 91 1014.5
20260509110037 48 0 0.0 0.0 0.00 0.00 0.00 92 1014.3
20260509104536 48 0 0.0 0.0 0.00 0.00 0.00 92 1014.4
20260509103041 47 0 0.0 0.0 0.00 0.00 0.00 91 1014.0
20260509101541 47 0 0.0 0.0 0.00 0.00 0.00 90 1013.8
20260509100040 48 0 0.0 0.0 0.00 0.00 0.00 91 1013.6
20260509094540 48 0 0.0 0.0 0.00 0.00 0.00 91 1013.7
20260509093045 47 0 0.0 0.0 0.00 0.00 0.00 90 1013.6
20260509091541 48 0 0.0 0.0 0.00 0.00 0.00 89 1013.7
20260509090042 48 0 0.0 0.0 0.00 0.00 0.00 88 1013.5
20260509084547 49 0 0.0 0.0 0.00 0.00 0.00 87 1013.9
20260509083039 49 0 0.0 0.0 0.00 0.00 0.00 87 1014.1
20260509081537 49 0 0.0 0.0 0.00 0.00 0.00 86 1014.2
20260509080053 50 0 0.0 0.0 0.00 0.00 0.00 86 1014.2
20260509074541 50 0 0.0 0.0 0.00 0.00 0.00 86 1014.1
20260509073119 50 0 0.0 0.0 0.00 0.00 0.00 86 1014.0
20260509071542 50 0 0.0 0.0 0.00 0.00 0.00 83 1014.3
20260509070037 51 0 0.0 0.0 0.00 0.00 0.00 82 1014.6
20260509064547 52 0 0.0 0.0 0.00 0.00 0.00 80 1014.7
20260509063040 53 0 0.0 0.0 0.00 0.00 0.00 78 1014.9
20260509061550 53 0 0.0 0.0 0.00 0.00 0.00 77 1015.1
20260509060041 53 217 0.0 2.0 0.00 0.00 0.00 76 1015.3
20260509054543 53 0 0.0 2.0 0.00 0.00 0.00 76 1015.5
20260509053037 54 0 0.0 2.0 0.00 0.00 0.00 73 1015.6
20260509051545 54 0 0.0 2.0 0.00 0.00 0.00 73 1015.9
20260509050041 54 0 0.0 0.0 0.00 0.00 0.00 72 1016.0
20260509044541 54 0 0.0 0.0 0.00 0.00 0.00 73 1016.1
20260509043043 54 0 0.0 0.0 0.00 0.00 0.00 69 1016.1
20260509041543 55 0 0.0 2.0 0.00 0.00 0.00 68 1016.2
20260509040042 55 0 0.0 2.0 0.00 0.00 0.00 70 1016.1
20260509034540 55 180 0.0 0.0 0.00 0.00 0.00 68 1016.3
20260509033040 55 0 0.0 1.0 0.00 0.00 0.00 67 1016.1
20260509031538 55 0 0.0 0.0 0.00 0.00 0.00 71 1016.1
20260509030045 55 0 0.0 1.0 0.00 0.00 0.00 69 1016.2
20260509024541 55 0 0.0 0.0 0.00 0.00 0.00 68 1016.4
20260509023043 55 0 0.0 0.0 0.00 0.00 0.00 68 1016.5
20260509021540 55 0 0.0 0.0 0.00 0.00 0.00 65 1016.4
20260509020037 56 0 0.0 0.0 0.00 0.00 0.00 65 1016.4
20260509014536 56 0 0.0 2.0 0.00 0.00 0.00 64 1016.5
20260509013059 56 0 0.0 0.0 0.00 0.00 0.00 63 1016.4
20260509011542 57 0 0.0 0.0 0.00 0.00 0.00 61 1016.1
20260509010042 57 0 0.0 0.0 0.00 0.00 0.00 60 1016.1
20260509004602 57 0 0.0 0.0 0.00 0.00 0.00 60 1015.8
20260509003043 58 0 0.0 0.0 0.00 0.00 0.00 62 1015.7
20260509001536 59 0 0.0 0.0 0.00 0.00 0.00 55 1015.6
20260509000042 60 0 0.0 0.0 0.00 0.00 0.00 54 1015.4
20260508234541 62 0 0.0 0.0 0.00 0.00 0.00 49 1015.5
20260508233040 63 0 0.0 2.0 0.00 0.00 0.00 43 1015.6
20260508231540 65 0 0.0 2.0 0.00 0.00 0.00 39 1015.8
20260508230050 66 220 2.0 7.0 0.00 0.00 0.00 37 1015.8
20260508224537 66 172 1.0 6.0 0.00 0.00 0.00 38 1015.5
20260508223044 67 182 1.0 4.0 0.00 0.00 0.00 36 1015.7
20260508221543 67 256 0.0 2.0 0.00 0.00 0.00 34 1015.4
20260508220046 66 0 0.0 3.0 0.00 0.00 0.00 33 1015.4
20260508214546 67 197 0.0 6.0 0.00 0.00 0.00 36 1015.5
20260508213037 67 250 1.0 6.0 0.00 0.00 0.00 34 1015.7
20260508211536 67 0 1.0 4.0 0.00 0.00 0.00 35 1015.5
20260508210042 67 221 2.0 6.0 0.00 0.00 0.00 33 1016.0
20260508204542 67 190 1.0 8.0 0.00 0.00 0.00 35 1015.9
20260508203037 68 326 0.0 7.0 0.00 0.00 0.00 33 1016.2
20260508201537 68 241 1.0 6.0 0.00 0.00 0.00 33 1016.5
20260508200045 68 148 1.0 5.0 0.00 0.00 0.00 33 1016.5
20260508194547 67 162 0.0 7.0 0.00 0.05 0.00 32 1016.5
20260508193047 67 103 1.0 5.0 0.00 0.05 0.00 31 1016.6
20260508191543 68 0 0.0 7.0 0.00 0.05 0.00 34 1017.1
20260508190050 67 267 0.0 5.0 0.00 0.05 0.00 33 1017.2
20260508184556 69 116 0.0 7.0 0.00 0.05 0.00 33 1017.3